User: anonymous   Login
Location: Friaudour
(46.0460°N, 1.2873°E)
Time: 22:08:55
(UTC+00:00)
Language:

Meteor 1-19 Rocket - Orbit

View from above orbital plane
View from above orbital plane
View from above satellite
View from above satellite

Ground track
Ground track

The orbit data is extracted from the following two-line orbital elements,

1  7493U 74083B   20272.44615610 -.00000046 +00000-0 -32988-4 0  9991
2  7493 081.1605 067.6571 0078052 333.6910 026.0303 14.07584238357208
Epoch (UTC): 28 September 2020 10:42:27
Eccentricity: 0.0078052
inclination: 81.1605°
perigee height: 811 km
apogee height: 924 km
right ascension of ascending node: 67.6571°
argument of perigee: 333.6910°
revolutions per day: 14.07584238
mean anomaly at epoch: 26.0303°
orbit number at epoch: 35720

The dashed part of the orbit path shows where the satellite is in the earth's shadow,  

DLR